Preview of NWS' New Version of Forecast
This preview is not operational and should not be used for support decisions.

Regional Weather Roundup (RWR)

Issued by National Weather Service (NWS)

                            
000
ASUS43 KBIS 220602
RWRND 

NORTH DAKOTA REGIONAL WEATHER ROUNDUP
NATIONAL WEATHER SERVICE BISMARCK ND
1200 AM CST FRI FEB 22 2019

NOTE: "FAIR" INDICATES FEW OR NO CLOUDS BELOW 12,000 FEET WITH NO
SIGNIFICANT WEATHER AND/OR OBSTRUCTIONS TO VISIBILITY.


NDZ001>003-009>011-017-220700-
NORTHWEST NORTH DAKOTA
  
CITY           SKY/WX    TMP DP  RH WIND       PRES   REMARKS
WILLISTON      CLEAR    -10 -15  78 CALM      30.23S                  
6HR MIN TEMP: -14; 6HR MAX TEMP:   5;                                

MINOT          CLOUDY    -1  -6  79 SW8       30.21R WCI -15          
$$
 
NDZ018>021-031>035-040>046-220700-
SOUTHWEST NORTH DAKOTA
  
CITY           SKY/WX    TMP DP  RH WIND       PRES   REMARKS
BISMARCK       MOCLDY    -4  -8  83 CALM      30.28R                  
6HR MIN TEMP:  -6; 6HR MAX TEMP:  12;                                

DICKINSON      CLEAR     -9 -14  78 W6        30.16F WCI -22          
GARRISON         N/A     -8 -12  83 W10       30.22S WCI -26          
6HR MIN TEMP:  -9; 6HR MAX TEMP:   6;                                

HETTINGER ARPT MOCLDY     2  -3  80 NW3       30.19F                  
$$
 
NDZ004>008-012>016-024-026-027-054-220700-
NORTHEAST NORTH DAKOTA
  
CITY           SKY/WX    TMP DP  RH WIND       PRES   REMARKS
GRAND FORKS    FLURRIES   9   6  88 CALM      30.29R                  
GRND FRKS AFB  MOCLDY    -1  -5  83 CALM      30.29R                  
DEVILS LAKE    PTCLDY    -6  -9  86 SW10      30.25R WCI -24          
$$
 
NDZ022-023-025-028>030-036>039-047>053-220700-
SOUTHEAST NORTH DAKOTA
  
CITY           SKY/WX    TMP DP  RH WIND       PRES   REMARKS
FARGO          CLOUDY    12   9  87 S6        30.30S FOG     WCI   3  
6HR MIN TEMP:   0; 6HR MAX TEMP:  16;                                

JAMESTOWN      CLOUDY     2  -1  88 W7        30.26R WCI -11          
$$